Location: Montbazon
(47.2835°N, 0.6999°E)
Time: 16:44:01
(UTC+00:00)

USA 234 - Pass Details

Date: 08 November 2025
Orbit: 1100 x 1107 km, 123.0° (Epoch: 02 December)

Event Time Altitude Azimuth Distance (km) Brightness Sun altitude
Rises 03:49:16 0° 127° (SE) 3,918 6.7 -31.0°
Reaches altitude 10° 03:51:45 10° 128° (SE) 2,962 6.0 -30.6°
Maximum altitude 03:58:19 83° 217° (SW) 1,117 3.1 -29.5°
Enters shadow 03:58:53 76° 281° (W) 1,141 3.1 -29.4°
